Starlink 34062

operational
NORAD ID: 64021 Int'l Des: 2025-101 Owner: SPXS Country: US Constellation: starlink
LEOCIRCULAR

Über Starlink 34062

Beschreibung wird geladen...

Live-Position

3D-Globus wird geladen...

Nächste Überflüge

Höhenverlauf

Altitude vs Time

uPlot chart will show altitude changes over time

Zweizeiliger Elementsatz

1 64021U 25101AD 26063.30194645 .00045465 00000-0 16487-2 0 9993
2 64021 43.0047 28.1764 0002643 259.7785 100.2769 15.27634374 46231
Epoch: 4. März 2026 • Age: 18 hours

Aktueller Status

Höhe 492.2 km
Geschwindigkeit 7.62 km/s
Subsatellitenpunkt -37.70°S, 167.13°W
Startdatum 14. Mai 2025
Alter 0.8 years
Typ internet

Technische Details

Klassifizierung Payload
Masse 575.00 kg
Trockenmasse 530.00 kg
Gesamtmasse 575.00 kg
Länge 0.30 m
Durchmesser 4.10 m
Spannweite 29.00 m
Form Box + pan
Hersteller SPXS
Bus-Typ Starlink V2MO
Phasenstatus In Orbit
Besitzer/Staat SPXS/US

Große Konstellationen

Loading constellations...